SCP
0 0 1 1 1 1 1 1 1 1 1 1 1 1 1 1 1 1 1 1 1 1 1 1 1 1 1 1 1 1 1 1 1 1 1 0 0 0 0 0 0 0 0
0 0 0 0 0 0 0 0 0 1 1 1 1 1 1 1 1 1 1 1 1 1 1 1 1 1 1 1 1 1 1 1 1 1 1 1 0 1 1 0 0 0 0
0 0 0 0 0 0 0 0 0 0 0 0 0 1 1 1 1 1 1 1 1 1 1 1 1 1 1 1 1 1 1 1 1 1 1 1 1 1 1 1 1 0 0
0 0 0 0 0 0 0 0 0 0 0 0 0 0 1 1 1 1 1 1 2 2 1 1 1 1 1 1 1 1 1 1 1 1 1 1 1 1 1 1 1 0 0
0 0 0 0 0 0 0 0 0 0 0 0 0 0 0 0 0 0 1 1 1 1 1 1 1 1 1 1 1 1 1 1 1 1 1 1 1 1 1 1 1 1 0
0 0 0 0 0 0 0 0 0 0 0 0 0 0 0 0 0 0 0 0 0 1 1 1 1 1 1 1 1 1 1 1 1 1 1 1 1 1 1 1 1 1 1
0 0 0 0 0 0 0 0 0 0 0 0 0 0 0 0 0 0 0 0 0 0 1 1 1 1 1 1 1 1 1 1 1 1 1 1 1 1 1 1 1 1 1
0 0 0 0 0 0 0 0 0 0 0 0 0 0 0 0 0 0 0 0 0 0 0 1 1 1 1 1 1 1 1 1 1 1 1 1 1 1 1 1 1 1 1
0 0 0 0 0 0 0 0 0 0 0 0 0 0 0 0 0 0 0 0 0 0 0 0 1 1 1 1 1 1 1 1 1 1 1 1 1 1 1 1 1 2 2
0 0 0 0 0 0 0 0 0 0 0 0 0 0 0 0 0 0 0 0 0 0 0 0 0 1 1 1 1 1 1 1 1 1 1 1 1 1 1 1 1 2 2
0 0 0 0 0 0 0 0 0 0 0 0 0 0 0 0 0 0 0 0 0 0 0 0 0 0 1 1 1 1 1 1 1 1 1 1 1 1 1 1 1 2 2
0 0 0 0 0 0 0 0 0 0 0 0 0 0 0 0 0 0 0 0 0 0 0 0 0 0 0 0 0 0 0 0 0 0 0 1 1 1 1 1 1 1 1
0 0 0 0 0 0 0 0 0 0 0 0 0 0 0 0 0 0 0 0 0 0 0 0 0 0 0 0 0 0 0 0 0 0 0 0 1 1 1 1 1 1 1
0 0 0 0 0 0 0 0 0 0 0 0 0 0 0 0 0 0 0 0 0 0 0 0 0 0 0 0 0 0 0 0 0 0 0 0 0 0 1 1 1 1 1
0 0 0 0 0 0 0 0 0 0 0 0 0 0 0 0 0 0 0 0 0 0 0 0 0 0 0 0 0 0 0 0 0 0 0 0 0 0 0 0 0 0 0
0 0 0 0 0 0 0 0 0 0 0 0 0 0 0 0 0 0 0 0 0 0 0 0 0 0 0 0 0 0 0 0 0 0 0 0 0 0 0 0 0 0 0
0 0 0 0 0 0 0 0 0 0 0 0 0 0 0 0 0 0 0 0 0 0 0 0 0 0 0 0 0 0 0 0 0 0 0 0 0 0 0 0 0 0 0
1 1 1 0 0 0 0 0 0 0 0 0 0 0 0 0 0 0 0 0 0 0 0 0 0 0 0 0 0 0 0 0 0 0 0 0 0 0 0 0 0 0 0
1 1 1 1 0 0 0 0 0 0 0 0 0 0 0 0 0 0 0 0 0 0 0 0 0 0 0 0 0 0 0 0 0 0 0 0 0 0 0 0 0 0 0
2 1 1 1 1 0 0 0 0 0 0 0 0 0 0 0 0 0 0 0 0 0 0 0 0 0 0 0 0 0 0 0 0 0 0 0 0 0 0 0 0 0 0
2 2 1 1 1 1 0 0 1 1 1 1 1 0 0 0 0 0 0 0 0 0 0 0 0 0 0 0 0 0 0 0 0 0 0 0 0 0 0 0 0 0 0
2 2 1 1 1 1 1 0 0 1 1 1 1 1 1 1 0 0 0 0 0 0 0 0 0 0 0 0 0 0 0 0 0 0 0 0 0 0 0 0 0 0 0
3 3 2 2 2 1 1 0 0 0 1 1 1 1 1 1 1 0 0 0 0 0 0 0 0 0 0 0 0 0 0 0 0 0 0 0 0 0 0 0 0 0 0
3 3 2 2 2 2 1 0 0 0 1 1 2 2 2 1 1 1 1 1 1 1 0 0 0 0 0 0 0 0 0 0 0 0 1 0 0 0 0 0 0 0 0
3 2 2 2 2 2 1 0 0 1 1 1 2 2 2 1 1 1 1 1 1 1 1 0 0 0 0 0 0 0 0 0 0 1 1 1 1 0 0 0 0 0 0
2 2 2 2 2 2 1 0 0 1 1 1 2 2 1 1 1 1 1 1 1 1 1 1 0 0 0 0 0 0 0 0 0 1 1 1 1 1 1 1 1 1 0
Wind_Speed
2 2 2 2 2 2 1 1 1 1 2 2 3 3 3 3 4 4 2 6 5 6 8 9 11 11 12 12 12 12 12 12 11 10 10 10 11 10 10 9 9 8 8
3 2 1 2 2 2 3 2 2 1 1 1 2 2 3 3 3 4 4 4 7 6 7 9 11 12 13 13 13 13 13 12 11 11 11 10 11 11 11 10 9 9 8
3 2 2 1 3 2 1 1 1 2 2 2 2 2 3 3 3 3 4 4 4 8 8 8 9 11 12 14 14 14 14 12 12 12 11 11 11 11 11 10 10 9 9
3 2 2 3 2 2 1 1 2 2 2 3 2 2 2 2 3 4 5 4 4 4 7 9 8 10 12 14 14 14 14 13 12 12 12 12 12 12 12 11 11 10 10
2 1 3 3 1 2 2 3 3 3 2 2 2 2 2 2 2 3 4 5 4 5 4 6 8 9 12 13 13 14 14 14 13 13 13 13 14 13 13 13 12 12 11
2 1 3 3 2 2 2 3 2 2 3 3 3 1 1 1 1 1 4 3 3 5 5 4 5 8 11 11 11 12 14 15 14 14 15 15 15 14 14 14 14 14 13
3 1 2 3 2 3 3 3 3 1 1 3 3 2 2 1 1 0 1 2 1 2 2 3 4 4 6 11 11 11 12 13 14 14 14 14 15 14 14 15 15 15 15
3 3 2 1 2 2 2 3 3 3 2 2 4 3 3 5 3 2 1 1 2 1 0 0 1 3 4 4 6 9 10 13 14 13 13 14 14 14 14 15 16 16 16
4 2 2 1 1 1 3 3 3 3 3 1 3 5 4 1 1 3 1 2 2 2 1 1 0 0 2 3 3 6 6 7 9 12 13 13 14 14 15 16 16 17 17
5 4 3 2 1 1 1 1 4 2 3 2 2 2 4 5 5 1 3 2 2 1 3 2 1 1 1 1 2 2 1 3 6 9 11 12 12 13 15 16 17 17 18
6 5 4 3 3 1 1 2 1 3 2 3 2 1 1 1 4 5 2 1 1 0 1 2 2 2 2 1 0 4 2 1 3 4 6 9 11 12 14 16 18 18 18
6 7 6 5 4 2 2 2 1 1 2 3 4 3 2 3 3 3 4 4 3 1 2 2 3 1 2 1 4 6 4 2 2 3 4 6 8 11 13 15 17 18 19
5 6 6 5 4 3 3 3 3 2 2 2 3 3 3 3 3 4 5 5 5 3 2 4 2 2 2 2 1 5 1 1 2 3 4 5 6 7 9 11 14 16 18
4 6 6 6 6 5 5 4 4 4 3 3 4 3 4 3 3 4 4 5 6 4 4 3 2 3 2 3 3 5 3 3 2 4 5 5 5 6 7 8 9 12 13
5 7 7 7 7 6 6 5 4 4 4 5 5 5 5 3 4 4 4 5 6 7 4 1 3 1 3 4 2 6 6 1 2 5 6 6 6 6 6 7 8 9 11
6 7 8 8 7 7 7 7 6 5 5 5 4 4 5 5 3 4 5 5 5 7 7 4 4 4 4 7 3 6 8 4 9 9 6 6 7 7 7 8 8 8 9
8 8 8 8 8 8 8 7 7 5 7 6 6 6 7 6 6 5 5 5 6 6 7 7 6 4 5 8 7 7 8 8 8 11 8 7 7 8 8 8 9 9 9
9 9 9 9 9 9 8 8 9 7 7 8 7 7 7 6 7 8 6 7 6 6 8 9 8 7 7 7 7 8 9 8 8 7 9 9 9 9 9 9 9 10 10
10 10 10 10 9 9 9 9 9 8 8 8 8 8 8 8 8 7 7 8 7 7 7 9 9 7 7 7 7 9 10 7 10 8 11 13 12 11 11 11 11 11 11
11 11 11 10 10 10 10 10 9 9 9 9 9 9 9 9 9 9 8 9 8 8 8 9 9 8 7 7 7 8 8 7 8 8 7 7 10 12 13 13 13 13 12
11 11 11 11 11 10 10 11 10 10 10 10 10 11 11 10 8 8 8 8 8 8 9 9 9 8 8 6 7 7 8 7 8 8 8 8 8 10 12 16 17 16 14
11 11 11 12 12 11 8 9 10 10 10 11 11 11 11 11 13 14 13 12 11 11 11 10 9 9 9 9 7 8 9 9 9 6 7 8 8 9 9 10 9 12 13
11 12 12 12 13 12 10 12 14 12 12 11 12 11 11 10 12 13 15 18 17 18 16 13 14 12 11 9 9 10 9 10 10 8 8 10 9 10 10 9 8 10 12
10 11 12 13 12 12 12 14 13 14 14 14 14 14 13 13 13 13 13 13 14 15 16 16 14 14 13 11 10 11 11 11 12 11 10 12 11 11 10 10 10 14 14
9 10 11 12 12 12 12 14 14 12 13 15 15 15 15 15 14 12 14 15 15 14 14 16 15 14 12 9 9 10 11 11 12 10 9 10 11 10 10 10 10 14 16
8 9 10 11 12 12 10 13 14 11 12 12 12 14 16 17 15 14 15 16 16 15 14 12 14 15 16 16 15 15 14 13 12 11 9 9 10 10 10 10 9 8 11
Wind_Direction
39 37 30 356 338 351 283 292 314 333 276 247 258 244 256 266 280 272 170 154 205 225 225 216 211 210 210 211 211 206 203 200 193 189 189 187 183 183 184 183 181 178 176
52 32 65 12 4 352 4 337 348 299 285 296 267 260 260 260 250 269 268 185 191 212 229 223 218 213 215 215 216 213 210 209 202 194 193 193 190 189 191 191 190 186 182
66 32 44 19 25 19 351 316 317 288 271 255 253 259 259 268 275 267 269 273 220 195 205 217 221 216 217 218 219 218 215 214 209 201 198 196 195 196 195 194 194 192 188
66 20 32 43 12 348 354 352 311 303 305 288 281 275 262 249 259 266 259 249 262 252 197 194 215 216 218 221 221 220 217 214 213 209 205 203 202 201 199 198 197 196 193
93 41 45 46 336 10 4 343 25 324 318 312 273 230 267 269 266 262 270 264 254 257 252 176 201 214 217 221 224 222 221 217 215 216 213 211 210 207 204 203 201 200 198
108 39 89 53 356 37 31 28 7 1 324 313 297 326 286 293 274 313 280 263 250 245 239 233 212 202 204 213 221 224 223 223 219 220 220 219 217 212 208 208 206 204 203
122 38 65 90 5 51 22 10 340 342 340 328 272 221 181 179 65 42 333 319 308 268 249 234 236 230 194 198 210 220 229 232 228 225 226 226 224 218 213 212 211 209 207
160 149 70 98 68 72 58 23 0 332 11 0 314 280 209 170 177 68 41 50 9 347 251 219 248 226 244 209 177 202 222 232 232 226 227 230 228 224 220 218 216 213 211
177 144 150 44 61 324 60 20 355 358 350 37 2 323 308 347 155 145 79 68 40 13 32 58 60 330 242 227 202 177 208 225 234 230 228 230 230 225 222 223 222 219 216
188 180 179 168 233 14 78 304 52 337 320 345 92 14 353 353 309 209 178 139 85 25 21 345 24 63 345 259 117 89 170 235 238 236 236 236 234 231 228 226 226 224 222
196 194 191 190 200 219 85 24 40 333 329 334 342 337 329 249 272 294 294 284 233 239 5 317 349 359 9 1 276 63 45 291 252 247 247 245 237 234 233 231 230 229 229
194 192 197 200 210 207 179 210 250 220 337 346 319 317 303 302 303 299 289 270 280 268 313 315 285 316 320 321 55 40 23 8 320 279 261 254 246 233 233 234 233 233 233
193 185 196 199 209 202 208 215 225 281 252 269 278 295 310 308 313 304 299 302 296 274 244 250 249 281 282 312 65 13 158 40 342 314 290 271 260 247 239 238 237 237 237
203 175 192 201 207 207 213 211 235 220 232 253 265 289 284 279 291 288 297 304 294 280 230 246 280 256 301 289 44 299 252 137 326 311 298 283 269 258 246 242 243 241 239
196 187 199 202 205 209 221 224 240 237 232 246 244 224 253 267 262 277 280 287 297 300 297 204 255 246 272 290 328 288 289 150 282 283 282 281 277 270 263 254 249 247 241
203 197 202 205 208 209 213 227 233 216 234 241 259 277 271 269 264 262 267 271 275 285 294 300 280 287 320 305 248 278 278 240 239 242 252 266 270 268 264 260 257 253 249
197 203 206 209 212 213 214 220 243 229 235 242 243 241 244 267 271 269 258 261 264 268 276 283 282 274 266 277 290 285 277 270 252 202 217 248 263 264 262 258 254 252 250
203 204 208 212 216 217 216 221 232 232 235 241 243 245 247 241 240 261 267 265 265 269 271 280 285 280 263 262 266 273 274 270 276 198 201 234 249 254 254 256 253 249 249
207 209 209 215 219 222 221 225 231 236 239 242 244 244 245 246 245 251 254 263 263 257 258 269 273 276 272 266 269 263 264 263 271 245 208 220 230 238 243 247 248 248 246
208 211 214 218 221 224 225 227 229 234 240 243 244 245 245 241 240 245 247 250 259 267 263 262 268 268 263 257 256 266 266 248 256 270 264 248 225 222 233 237 238 240 242
212 213 217 221 224 226 226 225 230 233 236 241 241 240 242 241 246 248 258 257 255 257 264 263 265 267 266 265 263 267 271 275 263 260 266 261 244 237 226 226 228 231 231
216 217 221 225 227 230 209 209 233 246 242 242 244 243 243 226 227 227 242 254 262 261 265 273 272 272 273 272 271 274 277 274 274 262 263 267 266 264 260 256 230 206 217
213 218 225 229 233 234 209 205 216 242 249 248 247 246 247 241 222 231 224 225 237 242 248 260 269 273 276 270 274 271 267 275 282 289 280 273 268 265 261 257 215 211 223
219 222 227 231 236 235 209 210 212 233 249 250 247 245 246 251 241 236 242 238 236 231 226 230 246 257 260 268 264 264 273 270 264 255 254 265 268 268 267 264 223 212 224
227 230 232 235 237 239 213 209 209 237 242 247 248 246 245 245 239 223 240 249 250 248 238 230 238 248 261 267 265 266 263 264 266 264 246 253 264 269 269 265 249 213 219
238 244 243 241 243 247 227 208 206 240 248 250 247 246 241 241 243 212 231 243 248 248 252 240 225 235 243 242 230 240 253 259 264 266 259 256 263 268 272 266 261 243 227